QPF
0.00 0.00 0.00 0.00 0.00 0.00 0.00 0.00 0.03 0.01 0.02 0.03 0.00 0.00 0.00 0.00 0.00 0.00 0.00 0.00 0.00 0.00 0.00 0.00 0.00 0.00 0.00 0.00 0.00 0.00 0.01 0.00 0.00 0.00 0.00 0.00 0.00 0.00 0.00 0.00 0.00 0.00 0.00 0.00
0.00 0.00 0.00 0.00 0.00 0.00 0.00 0.00 0.01 0.00 0.01 0.05 0.01 0.00 0.00 0.00 0.00 0.00 0.00 0.00 0.00 0.00 0.00 0.00 0.00 0.00 0.00 0.00 0.00 0.00 0.00 0.00 0.00 0.00 0.00 0.00 0.00 0.00 0.00 0.00 0.00 0.00 0.00 0.00
0.00 0.00 0.00 0.00 0.00 0.00 0.00 0.00 0.00 0.00 0.01 0.02 0.00 0.00 0.00 0.00 0.00 0.00 0.00 0.00 0.00 0.00 0.00 0.00 0.00 0.00 0.00 0.00 0.00 0.00 0.00 0.00 0.00 0.00 0.00 0.00 0.00 0.00 0.00 0.00 0.00 0.00 0.00 0.00
0.00 0.00 0.00 0.00 0.00 0.00 0.00 0.00 0.00 0.00 0.00 0.01 0.00 0.00 0.00 0.00 0.00 0.00 0.00 0.00 0.00 0.00 0.00 0.00 0.00 0.00 0.00 0.00 0.00 0.00 0.00 0.00 0.00 0.00 0.00 0.00 0.00 0.00 0.00 0.00 0.00 0.00 0.00 0.00
0.00 0.00 0.00 0.00 0.00 0.00 0.00 0.00 0.00 0.00 0.00 0.00 0.00 0.00 0.00 0.01 0.00 0.01 0.00 0.00 0.00 0.00 0.00 0.00 0.00 0.00 0.00 0.00 0.00 0.00 0.00 0.00 0.00 0.00 0.00 0.00 0.00 0.00 0.00 0.00 0.00 0.00 0.00 0.00
0.00 0.00 0.00 0.00 0.00 0.00 0.00 0.00 0.00 0.00 0.00 0.00 0.00 0.00 0.00 0.00 0.01 0.06 0.01 0.00 0.00 0.00 0.00 0.00 0.00 0.00 0.00 0.00 0.00 0.00 0.00 0.00 0.00 0.00 0.00 0.00 0.00 0.00 0.00 0.00 0.00 0.00 0.00 0.00
0.00 0.00 0.00 0.00 0.00 0.00 0.00 0.00 0.00 0.00 0.00 0.00 0.00 0.00 0.00 0.00 0.00 0.12 0.12 0.00 0.00 0.00 0.00 0.00 0.00 0.00 0.00 0.00 0.00 0.00 0.00 0.00 0.00 0.00 0.00 0.00 0.00 0.00 0.00 0.00 0.00 0.00 0.00 0.00
0.00 0.00 0.00 0.00 0.00 0.00 0.00 0.00 0.00 0.00 0.00 0.00 0.00 0.00 0.00 0.00 0.00 0.02 0.05 0.00 0.00 0.00 0.00 0.00 0.00 0.00 0.00 0.00 0.00 0.00 0.00 0.00 0.00 0.00 0.00 0.00 0.00 0.00 0.00 0.00 0.00 0.00 0.00 0.00
0.00 0.00 0.00 0.00 0.00 0.00 0.00 0.00 0.00 0.00 0.00 0.00 0.00 0.00 0.00 0.00 0.00 0.00 0.01 0.01 0.00 0.00 0.00 0.00 0.00 0.00 0.00 0.00 0.00 0.00 0.00 0.00 0.00 0.00 0.00 0.00 0.00 0.00 0.00 0.00 0.00 0.00 0.00 0.00
0.00 0.00 0.00 0.00 0.00 0.00 0.00 0.00 0.00 0.00 0.00 0.00 0.00 0.00 0.00 0.00 0.00 0.00 0.00 0.00 0.00 0.00 0.00 0.00 0.00 0.00 0.00 0.00 0.00 0.00 0.00 0.00 0.00 0.00 0.00 0.00 0.00 0.00 0.00 0.00 0.00 0.00 0.00 0.00
0.00 0.00 0.00 0.00 0.00 0.00 0.00 0.00 0.00 0.00 0.00 0.00 0.00 0.00 0.00 0.00 0.00 0.00 0.00 0.00 0.00 0.00 0.00 0.00 0.00 0.00 0.00 0.00 0.00 0.00 0.00 0.00 0.00 0.00 0.00 0.00 0.00 0.00 0.00 0.00 0.00 0.00 0.00 0.00
0.00 0.00 0.00 0.00 0.00 0.00 0.00 0.00 0.00 0.00 0.00 0.00 0.00 0.00 0.00 0.00 0.00 0.00 0.00 0.01 0.00 0.00 0.00 0.00 0.00 0.00 0.00 0.00 0.00 0.00 0.00 0.00 0.00 0.00 0.00 0.00 0.00 0.00 0.00 0.00 0.00 0.00 0.00 0.00
0.00 0.00 0.00 0.00 0.00 0.00 0.00 0.00 0.00 0.00 0.00 0.00 0.00 0.00 0.00 0.00 0.01 0.01 0.01 0.02 0.01 0.00 0.00 0.00 0.00 0.00 0.00 0.00 0.00 0.00 0.00 0.00 0.00 0.00 0.00 0.00 0.00 0.00 0.00 0.00 0.00 0.00 0.00 0.00
0.00 0.00 0.00 0.00 0.00 0.00 0.00 0.00 0.00 0.00 0.00 0.00 0.00 0.00 0.00 0.00 0.00 0.00 0.04 0.00 0.00 0.00 0.00 0.00 0.00 0.00 0.00 0.00 0.00 0.00 0.00 0.00 0.00 0.00 0.00 0.00 0.00 0.00 0.00 0.00 0.00 0.00 0.00 0.00
0.00 0.00 0.00 0.00 0.00 0.00 0.00 0.00 0.00 0.00 0.00 0.00 0.00 0.00 0.00 0.00 0.01 0.03 0.09 0.01 0.00 0.00 0.00 0.00 0.00 0.00 0.00 0.00 0.00 0.00 0.00 0.00 0.00 0.00 0.00 0.00 0.00 0.00 0.00 0.00 0.00 0.00 0.00 0.00
0.00 0.00 0.00 0.00 0.00 0.00 0.00 0.00 0.00 0.00 0.00 0.00 0.00 0.00 0.00 0.00 0.00 0.03 0.14 0.09 0.01 0.00 0.00 0.00 0.00 0.00 0.00 0.00 0.00 0.00 0.00 0.00 0.00 0.00 0.00 0.00 0.00 0.00 0.00 0.00 0.00 0.00 0.00 0.00
0.00 0.00 0.00 0.00 0.00 0.00 0.00 0.00 0.00 0.00 0.00 0.00 0.00 0.00 0.00 0.00 0.01 0.02 0.11 0.11 0.03 0.00 0.00 0.00 0.00 0.00 0.00 0.00 0.00 0.00 0.00 0.00 0.00 0.00 0.00 0.00 0.00 0.00 0.00 0.00 0.00 0.00 0.00 0.00
0.00 0.00 0.00 0.00 0.00 0.00 0.00 0.00 0.00 0.00 0.00 0.00 0.00 0.00 0.00 0.00 0.01 0.04 0.01 0.01 0.00 0.00 0.00 0.00 0.00 0.00 0.00 0.00 0.00 0.00 0.00 0.00 0.00 0.00 0.00 0.00 0.00 0.00 0.00 0.00 0.00 0.00 0.00 0.00
0.00 0.00 0.00 0.00 0.00 0.00 0.00 0.00 0.00 0.00 0.00 0.00 0.00 0.00 0.00 0.00 0.00 0.02 0.01 0.00 0.00 0.00 0.00 0.00 0.00 0.00 0.00 0.00 0.00 0.00 0.00 0.00 0.00 0.00 0.00 0.00 0.00 0.00 0.00 0.00 0.00 0.00 0.00 0.00
0.00 0.00 0.00 0.00 0.00 0.00 0.00 0.00 0.00 0.00 0.00 0.00 0.00 0.00 0.00 0.00 0.00 0.00 0.01 0.00 0.00 0.00 0.00 0.00 0.00 0.00 0.00 0.00 0.00 0.00 0.00 0.00 0.00 0.00 0.00 0.00 0.00 0.00 0.00 0.00 0.00 0.00 0.00 0.00
0.00 0.00 0.00 0.00 0.00 0.00 0.00 0.00 0.00 0.00 0.00 0.00 0.00 0.00 0.00 0.00 0.00 0.00 0.01 0.02 0.00 0.00 0.00 0.00 0.00 0.00 0.00 0.00 0.00 0.00 0.00 0.00 0.00 0.00 0.00 0.00 0.00 0.00 0.00 0.00 0.00 0.00 0.00 0.00
0.00 0.00 0.00 0.00 0.00 0.00 0.00 0.00 0.00 0.00 0.00 0.00 0.00 0.00 0.00 0.00 0.00 0.00 0.00 0.01 0.01 0.00 0.00 0.00 0.00 0.00 0.00 0.00 0.00 0.00 0.00 0.00 0.00 0.00 0.00 0.00 0.00 0.00 0.00 0.00 0.00 0.00 0.00 0.00
0.00 0.00 0.00 0.00 0.00 0.00 0.00 0.00 0.01 0.00 0.00 0.00 0.00 0.00 0.00 0.00 0.00 0.00 0.00 0.00 0.02 0.00 0.00 0.00 0.00 0.00 0.00 0.00 0.00 0.00 0.00 0.00 0.00 0.00 0.00 0.00 0.00 0.00 0.00 0.00 0.00 0.00 0.00 0.00
0.00 0.00 0.00 0.00 0.00 0.01 0.00 0.00 0.00 0.00 0.00 0.00 0.00 0.00 0.00 0.00 0.00 0.00 0.00 0.00 0.00 0.00 0.00 0.00 0.00 0.00 0.00 0.00 0.00 0.00 0.00 0.00 0.00 0.00 0.00 0.00 0.00 0.00 0.00 0.00 0.00 0.00 0.00 0.00
0.05 0.03 0.01 0.01 0.02 0.04 0.00 0.00 0.00 0.00 0.00 0.00 0.00 0.00 0.00 0.00 0.00 0.00 0.00 0.00 0.00 0.00 0.00 0.00 0.00 0.00 0.00 0.00 0.00 0.00 0.00 0.00 0.00 0.00 0.00 0.00 0.00 0.00 0.00 0.00 0.00 0.00 0.00 0.00
0.13 0.06 0.03 0.09 0.02 0.02 0.00 0.00 0.00 0.00 0.00 0.00 0.00 0.00 0.00 0.00 0.00 0.00 0.00 0.00 0.00 0.00 0.00 0.00 0.00 0.00 0.00 0.00 0.00 0.00 0.00 0.00 0.00 0.00 0.00 0.00 0.00 0.00 0.00 0.00 0.00 0.00 0.00 0.00
MSLP
1002.32 1002.82 1002.79 1002.87 1002.94 1002.82 1003.44 1003.77 1004.26 1004.19 1004.05 1004.72 1004.80 1004.49 1004.42 1004.14 1004.76 1005.42 1006.23 1006.66 1007.51 1008.39 1008.95 1009.71 1010.46 1010.96 1011.81 1012.46 1013.14 1013.70 1014.45 1014.91 1015.28 1015.69 1015.82 1015.75 1015.68 1015.45 1015.95 1015.66 1015.53 1015.62 1015.72 1015.75
1002.73 1002.30 1002.08 1002.05 1002.14 1002.20 1002.52 1003.42 1004.06 1003.13 1003.41 1004.81 1003.54 1003.51 1003.60 1003.60 1003.46 1004.29 1005.52 1006.40 1006.90 1007.72 1008.50 1009.24 1009.96 1010.59 1011.39 1012.22 1012.93 1013.63 1014.25 1014.70 1015.16 1015.53 1015.66 1015.75 1015.61 1015.76 1015.65 1015.62 1015.60 1015.61 1015.74 1015.74
1001.81 1001.44 1001.43 1001.33 1001.36 1001.48 1001.47 1002.20 1002.58 1003.16 1003.62 1004.20 1003.62 1003.75 1004.22 1003.50 1003.75 1004.53 1005.17 1006.01 1006.92 1007.23 1007.92 1008.70 1009.49 1010.22 1011.01 1011.80 1012.55 1013.37 1014.07 1014.53 1014.98 1015.27 1015.62 1015.80 1015.67 1015.71 1015.99 1015.95 1015.94 1015.76 1015.67 1015.63
1001.14 1000.88 1000.62 1000.42 1000.36 1000.54 1000.40 1000.64 1000.44 1001.04 1003.01 1003.22 1001.92 1003.06 1002.78 1002.99 1003.34 1004.18 1004.98 1005.49 1006.11 1006.77 1007.52 1008.38 1008.93 1009.86 1010.54 1011.37 1012.13 1012.91 1013.72 1014.27 1014.67 1015.04 1015.44 1015.77 1015.92 1016.06 1015.88 1015.80 1015.86 1015.86 1015.62 1015.61
1000.23 1000.12 999.79 999.54 999.32 999.46 999.49 999.12 999.82 1000.30 1001.02 1001.42 1000.84 1001.40 1000.65 1001.86 1002.90 1003.13 1004.04 1005.08 1005.53 1006.05 1006.88 1007.67 1008.35 1009.17 1009.82 1010.88 1011.64 1012.38 1013.22 1013.92 1014.34 1014.72 1015.20 1015.52 1015.85 1015.90 1015.70 1015.69 1015.87 1015.94 1015.71 1015.52
999.83 999.42 999.04 998.58 998.55 998.52 998.69 998.83 999.05 999.64 1000.45 1000.73 1000.59 1000.15 999.97 1000.75 1000.74 1002.62 1003.56 1004.27 1004.74 1005.27 1006.27 1007.13 1007.90 1008.70 1009.26 1010.27 1011.24 1012.02 1012.79 1013.44 1013.99 1014.49 1014.92 1015.28 1015.53 1015.76 1016.00 1016.03 1015.97 1015.78 1015.73 1015.68
999.82 999.06 998.22 998.12 998.10 997.96 998.09 998.96 999.58 1000.14 1000.19 1000.40 999.53 999.88 1000.58 999.40 1000.47 1001.33 1002.60 1003.45 1003.79 1004.20 1005.31 1006.49 1007.34 1008.02 1008.66 1009.54 1010.54 1011.53 1012.26 1013.03 1013.63 1014.21 1014.65 1014.96 1015.21 1015.46 1015.81 1015.77 1015.85 1015.71 1015.70 1015.54
999.78 999.11 997.98 997.08 997.06 997.39 997.44 998.30 999.28 1000.06 1000.37 999.94 999.60 1000.37 1000.12 999.45 1000.72 1000.90 1000.40 1000.52 1002.45 1002.97 1003.66 1005.14 1006.25 1007.06 1007.85 1008.84 1009.77 1010.73 1011.62 1012.41 1013.15 1013.77 1014.20 1014.58 1014.88 1015.19 1015.41 1015.38 1015.38 1015.45 1015.57 1015.38
999.63 998.41 997.74 996.57 996.33 996.65 996.84 997.24 998.06 999.26 999.51 1000.16 1000.71 1000.98 1000.27 1000.10 999.96 999.62 999.82 1000.26 1000.43 1001.61 1002.24 1003.64 1005.10 1006.03 1006.98 1007.93 1008.85 1009.74 1010.88 1011.75 1012.48 1013.14 1013.76 1014.20 1014.54 1014.91 1015.14 1015.16 1015.19 1015.24 1015.28 1015.59
999.04 998.88 997.55 996.44 995.96 995.52 995.92 996.74 997.59 998.18 999.28 1000.08 1000.28 1000.28 999.39 999.51 1000.21 1000.01 999.52 1000.07 999.85 1000.34 1001.24 1002.51 1003.81 1005.00 1006.02 1006.91 1007.88 1008.95 1010.06 1010.96 1011.75 1012.48 1013.12 1013.67 1014.11 1014.48 1014.70 1014.86 1014.95 1015.02 1015.14 1015.15
999.02 998.98 997.82 997.28 995.92 995.62 995.78 996.01 996.66 997.62 998.65 999.42 999.85 999.31 997.46 997.97 998.09 999.16 999.21 997.76 998.69 998.85 999.86 1001.12 1002.51 1003.86 1005.09 1006.08 1007.02 1008.08 1009.29 1010.29 1011.14 1011.79 1012.47 1013.06 1013.58 1013.96 1014.30 1014.45 1014.55 1014.79 1014.76 1014.75
1000.68 999.54 998.80 997.01 996.27 995.86 995.25 995.48 996.05 997.32 997.88 998.21 998.52 998.14 996.72 996.80 997.48 997.05 998.15 997.29 997.22 997.80 998.67 1000.06 1001.36 1002.84 1004.26 1005.28 1006.16 1007.13 1008.36 1009.36 1010.15 1010.93 1011.70 1012.29 1012.86 1013.30 1013.70 1013.93 1014.11 1014.30 1014.30 1014.24
1001.99 1000.92 999.87 998.29 996.92 995.76 995.63 994.62 995.18 995.83 996.89 997.34 998.08 997.61 996.86 996.54 996.88 996.55 996.71 997.18 998.25 997.86 998.48 999.79 1000.90 1002.16 1003.31 1004.39 1005.23 1006.20 1007.38 1008.36 1009.28 1010.13 1010.90 1011.54 1012.04 1012.51 1012.91 1013.26 1013.60 1013.58 1013.76 1013.74
1002.56 1002.23 1001.71 1000.34 998.21 996.82 995.53 994.41 994.59 995.17 996.07 996.54 996.56 997.00 996.52 996.17 996.34 996.71 996.38 997.06 996.69 997.72 998.16 999.40 1000.49 1001.62 1002.67 1003.61 1004.47 1005.38 1006.39 1007.42 1008.39 1009.32 1010.11 1010.68 1011.11 1011.58 1012.12 1012.58 1012.84 1012.94 1013.02 1013.12
1003.29 1002.91 1002.19 1000.37 998.90 997.58 996.30 995.16 993.83 994.18 994.66 995.34 995.73 996.20 995.72 995.23 995.06 996.72 996.73 997.78 997.68 997.70 998.41 999.38 1000.24 1001.19 1002.17 1003.07 1003.89 1004.74 1005.65 1006.48 1007.42 1008.45 1009.20 1009.60 1010.18 1010.82 1011.40 1011.83 1011.95 1012.16 1012.41 1012.45
1005.23 1004.42 1003.23 1000.89 999.33 998.00 996.37 995.04 994.19 993.11 993.62 994.05 994.58 995.73 995.18 995.67 996.42 997.11 998.44 999.62 999.15 997.42 998.23 999.06 999.98 1000.80 1001.64 1002.34 1003.05 1004.01 1004.82 1005.66 1006.54 1007.48 1008.17 1008.94 1009.61 1010.10 1010.50 1010.96 1011.10 1011.51 1011.76 1011.99
1007.14 1006.50 1005.12 1002.21 1000.21 998.63 996.62 995.02 994.21 993.40 992.64 993.30 993.79 994.69 995.24 995.94 996.36 997.75 997.88 1000.05 999.58 997.62 997.98 998.70 999.43 1000.03 1000.82 1001.56 1002.26 1003.28 1004.08 1004.98 1005.80 1006.58 1007.43 1008.16 1008.82 1009.34 1009.70 1010.08 1010.47 1010.82 1011.03 1011.39
1008.15 1007.77 1006.29 1003.81 1001.66 999.38 996.45 994.76 993.92 993.51 992.59 992.68 993.32 994.08 994.59 994.56 995.12 996.15 996.66 997.97 998.55 997.77 997.48 998.17 999.06 999.69 1000.30 1001.13 1001.88 1002.68 1003.60 1004.31 1005.11 1005.93 1006.66 1007.35 1007.97 1008.48 1008.93 1009.31 1009.64 1009.94 1010.18 1010.69
1008.33 1008.14 1007.34 1005.31 1002.68 999.70 996.62 994.98 994.33 994.06 993.87 993.08 992.99 993.92 994.40 994.16 994.49 995.13 995.01 996.35 997.08 997.21 996.84 997.54 998.32 999.02 999.97 1000.64 1001.40 1002.20 1003.13 1003.75 1004.44 1005.09 1005.72 1006.34 1006.92 1007.50 1007.97 1008.30 1008.61 1008.96 1009.40 1009.95
1008.20 1007.87 1008.23 1006.48 1004.48 1000.58 997.11 995.44 994.59 994.31 995.70 995.82 994.95 993.94 994.12 994.78 995.37 996.26 996.06 995.70 996.62 996.78 996.22 997.11 997.91 998.66 999.42 1000.08 1000.87 1001.89 1002.63 1003.27 1003.60 1004.01 1004.57 1005.29 1005.86 1006.31 1006.69 1007.06 1007.53 1007.99 1008.57 1009.27
1008.01 1007.80 1007.51 1006.37 1004.68 1001.24 998.47 996.70 995.28 995.76 998.73 997.41 996.32 995.18 994.64 994.52 993.99 993.94 994.71 995.62 996.22 996.61 996.67 996.24 997.19 997.86 998.35 999.30 1000.07 1000.94 1001.68 1001.82 1002.02 1003.21 1003.92 1004.50 1004.98 1005.24 1005.65 1006.40 1006.91 1007.53 1008.19 1008.92
1007.80 1007.40 1006.84 1005.88 1004.30 1002.21 999.45 998.04 998.83 999.77 998.85 998.26 997.63 996.53 996.05 994.99 994.60 994.12 993.60 995.05 996.34 996.24 996.22 995.98 996.55 997.17 997.63 998.44 999.20 1000.05 1000.44 999.87 1001.55 1002.39 1003.03 1003.56 1003.97 1004.42 1005.13 1005.74 1006.39 1007.03 1007.73 1008.36
1007.47 1006.19 1005.77 1004.74 1003.34 1002.46 1001.22 1000.71 1000.38 999.81 999.34 998.96 998.44 997.68 997.26 996.74 996.07 995.72 995.25 995.27 996.00 996.52 996.63 996.37 995.46 996.06 997.05 997.70 998.20 999.02 998.37 999.78 1000.56 1001.42 1001.85 1002.33 1002.92 1003.50 1004.13 1004.90 1005.68 1006.40 1006.95 1007.56
1007.64 1005.94 1005.52 1005.16 1004.69 1003.09 1002.23 1001.36 1000.78 1000.18 999.77 999.50 999.02 998.48 997.95 997.63 997.29 996.87 996.43 996.31 996.46 997.12 996.78 996.27 996.30 996.69 996.56 996.86 997.35 997.28 997.74 999.16 1000.04 1000.55 1001.05 1001.68 1002.25 1002.77 1003.38 1003.93 1004.42 1005.00 1005.76 1006.49
1010.96 1008.67 1007.56 1005.85 1005.20 1003.94 1002.82 1002.16 1001.40 1000.70 1000.04 999.98 999.83 999.67 999.56 998.94 998.49 997.84 997.00 996.42 996.59 996.82 996.63 996.31 996.36 996.61 996.69 996.45 996.72 996.76 997.70 998.47 999.14 999.62 1000.19 1000.67 1001.04 1001.63 1002.16 1002.60 1003.06 1003.44 1003.80 1004.33
1011.68 1010.91 1009.93 1008.73 1007.94 1007.19 1005.31 1003.74 1002.36 1001.49 1000.78 1000.77 1000.88 1000.48 1000.31 1000.38 999.84 999.01 998.32 997.76 997.65 997.40 996.36 996.40 996.41 996.49 996.42 996.50 996.41 996.17 996.77 997.31 997.98 998.72 999.26 999.50 999.96 1000.50 1001.02 1001.67 1002.89 1003.35 1003.25 1003.90
Thickness
5801 5777 5767 5788 5803 5810 5803 5790 5780 5799 5818 5802 5798 5809 5821 5836 5831 5826 5821 5819 5813 5809 5812 5812 5811 5816 5813 5812 5809 5809 5805 5804 5803 5799 5798 5800 5800 5802 5799 5802 5801 5799 5797 5797
5776 5762 5801 5815 5815 5811 5804 5781 5776 5807 5821 5799 5811 5814 5822 5835 5840 5835 5824 5818 5815 5814 5811 5812 5813 5815 5815 5812 5811 5809 5808 5807 5805 5803 5803 5803 5805 5803 5803 5802 5802 5801 5799 5798
5766 5789 5813 5810 5805 5802 5803 5788 5792 5790 5807 5801 5806 5797 5802 5833 5840 5833 5829 5824 5818 5817 5814 5813 5815 5815 5817 5814 5813 5811 5809 5809 5808 5808 5806 5805 5807 5806 5801 5800 5801 5802 5801 5801
5775 5804 5800 5801 5799 5807 5787 5822 5830 5823 5790 5765 5819 5767 5806 5824 5827 5827 5824 5822 5823 5822 5821 5818 5817 5817 5819 5817 5819 5816 5813 5812 5812 5812 5808 5805 5800 5797 5802 5803 5804 5803 5804 5804
5772 5786 5790 5790 5803 5819 5806 5836 5829 5831 5811 5810 5825 5799 5824 5830 5817 5829 5831 5824 5826 5829 5824 5820 5821 5822 5825 5823 5822 5821 5818 5815 5815 5814 5811 5808 5804 5804 5807 5807 5805 5805 5807 5807
5781 5808 5803 5807 5823 5827 5835 5829 5830 5829 5819 5782 5814 5817 5818 5820 5834 5830 5835 5831 5830 5833 5829 5826 5826 5827 5829 5828 5825 5824 5820 5818 5818 5816 5814 5812 5809 5807 5804 5805 5806 5807 5808 5809
5765 5779 5807 5817 5800 5823 5823 5803 5769 5760 5771 5765 5831 5819 5807 5847 5846 5839 5833 5838 5839 5837 5834 5829 5828 5829 5832 5831 5829 5826 5824 5820 5820 5818 5816 5815 5813 5812 5807 5809 5808 5809 5808 5810
5734 5734 5787 5815 5802 5798 5806 5803 5769 5739 5753 5784 5836 5794 5819 5847 5845 5848 5854 5857 5853 5847 5844 5839 5836 5837 5837 5835 5834 5831 5827 5825 5824 5821 5819 5818 5817 5814 5812 5813 5814 5813 5811 5813
5727 5745 5799 5815 5825 5820 5806 5790 5821 5790 5808 5790 5797 5806 5831 5840 5848 5857 5849 5853 5862 5854 5855 5849 5845 5845 5843 5842 5840 5838 5833 5830 5828 5826 5823 5821 5819 5817 5815 5816 5817 5816 5815 5811
5754 5731 5780 5807 5822 5830 5814 5831 5787 5798 5760 5754 5785 5791 5800 5832 5824 5838 5842 5842 5855 5864 5860 5857 5854 5851 5851 5850 5848 5845 5840 5835 5833 5830 5827 5824 5822 5820 5820 5819 5817 5817 5815 5815
5756 5746 5762 5783 5780 5792 5805 5800 5807 5807 5792 5763 5753 5772 5846 5843 5855 5842 5844 5866 5861 5871 5869 5865 5864 5859 5857 5856 5854 5850 5844 5840 5836 5834 5831 5828 5826 5824 5823 5821 5820 5818 5818 5819
5720 5728 5730 5760 5798 5811 5823 5807 5812 5783 5773 5793 5790 5789 5860 5860 5862 5865 5853 5869 5874 5879 5879 5874 5870 5864 5860 5859 5858 5856 5850 5846 5843 5840 5835 5832 5830 5828 5826 5825 5823 5822 5821 5823
5703 5698 5706 5736 5772 5799 5786 5821 5820 5816 5804 5787 5774 5793 5852 5854 5853 5866 5865 5863 5856 5874 5878 5874 5870 5866 5864 5863 5864 5861 5856 5852 5849 5844 5840 5836 5833 5832 5830 5829 5826 5827 5825 5825
5700 5691 5692 5699 5741 5779 5783 5810 5822 5812 5787 5792 5804 5811 5839 5850 5851 5858 5865 5866 5875 5873 5876 5872 5870 5868 5867 5867 5867 5864 5861 5858 5854 5849 5844 5840 5838 5837 5835 5833 5832 5831 5831 5830
5681 5674 5696 5732 5754 5766 5776 5789 5820 5805 5811 5795 5818 5812 5838 5856 5858 5853 5862 5856 5860 5867 5868 5867 5867 5869 5869 5867 5868 5867 5865 5863 5860 5852 5848 5847 5844 5841 5839 5838 5837 5836 5834 5833
5655 5659 5682 5716 5749 5759 5764 5784 5795 5824 5823 5822 5831 5819 5843 5847 5852 5843 5834 5822 5839 5865 5866 5865 5866 5868 5869 5870 5870 5869 5868 5866 5864 5857 5852 5850 5846 5844 5844 5842 5840 5836 5835 5834
5634 5645 5659 5696 5736 5743 5739 5777 5792 5807 5834 5830 5814 5831 5839 5830 5840 5831 5825 5814 5829 5861 5865 5864 5867 5871 5873 5874 5876 5871 5870 5868 5864 5860 5856 5853 5850 5847 5847 5846 5841 5838 5837 5836
5623 5634 5653 5679 5708 5695 5763 5803 5814 5814 5835 5845 5845 5843 5846 5853 5853 5849 5853 5845 5845 5859 5870 5869 5869 5873 5876 5876 5875 5873 5870 5869 5865 5860 5858 5856 5853 5851 5850 5848 5845 5842 5841 5837
5629 5630 5636 5656 5681 5724 5768 5796 5802 5801 5813 5845 5846 5843 5846 5856 5859 5857 5871 5865 5862 5863 5878 5878 5877 5879 5877 5878 5877 5874 5869 5869 5866 5863 5862 5860 5859 5856 5854 5851 5849 5847 5844 5840
5623 5631 5622 5642 5652 5685 5762 5799 5814 5810 5765 5803 5820 5837 5840 5840 5818 5819 5848 5863 5859 5866 5882 5880 5878 5880 5878 5878 5878 5871 5869 5867 5867 5869 5867 5866 5864 5863 5861 5859 5855 5853 5848 5843
5600 5611 5615 5635 5645 5695 5757 5782 5802 5755 5736 5785 5807 5820 5833 5828 5843 5862 5865 5856 5856 5864 5869 5887 5883 5882 5885 5882 5881 5874 5871 5872 5878 5873 5870 5867 5868 5868 5867 5862 5858 5853 5848 5842
5598 5603 5614 5632 5647 5671 5749 5761 5734 5739 5767 5779 5792 5806 5812 5834 5846 5855 5871 5859 5851 5860 5868 5882 5884 5884 5887 5886 5882 5876 5876 5889 5879 5875 5871 5871 5872 5871 5867 5863 5858 5853 5848 5841
5591 5621 5628 5647 5666 5701 5720 5726 5735 5746 5756 5771 5784 5800 5804 5812 5825 5835 5845 5855 5852 5857 5852 5869 5891 5891 5887 5887 5888 5880 5895 5887 5882 5877 5877 5877 5876 5874 5872 5864 5858 5852 5849 5843
5603 5632 5636 5650 5658 5679 5696 5713 5724 5735 5746 5766 5779 5790 5801 5803 5814 5820 5831 5838 5846 5847 5853 5861 5869 5872 5881 5890 5891 5897 5898 5888 5882 5879 5878 5877 5874 5874 5871 5869 5866 5860 5853 5846
5562 5592 5604 5640 5650 5667 5691 5701 5713 5723 5740 5751 5766 5776 5783 5794 5799 5810 5827 5839 5841 5845 5850 5861 5862 5868 5874 5888 5891 5898 5892 5889 5885 5884 5881 5880 5880 5876 5874 5873 5870 5868 5867 5861
5557 5564 5579 5595 5618 5625 5651 5678 5700 5706 5723 5737 5745 5757 5770 5776 5784 5798 5808 5826 5830 5832 5848 5853 5863 5866 5874 5882 5888 5895 5896 5894 5888 5883 5882 5884 5882 5880 5877 5873 5863 5861 5863 5856